Location: Pegasus Observatory
(35.6569°N, 82.5850°W)
Time: 19:08:17
(UTC-05:00)

LightSail 2 - Visible Passes

Search period start: 18 January 2020 00:00
Search period end: 28 January 2020 00:00
Orbit: 703 x 721 km, 24.0° (Epoch: 18 January)

Date Brightness Start Highest point End Pass type
(mag) Time Alt. Az. Time Alt. Az. Time Alt. Az.
18 Jan 7.4 18:43:36 10° SSW 18:46:19 14° SSE 18:49:01 10° SE visible
18 Jan 7.4 20:27:13 10° SW 20:29:05 17° SSW 20:29:05 17° SSW visible
19 Jan 6.9 19:29:07 10° SW 19:32:52 20° S 19:34:19 18° SSE visible
20 Jan 7.2 18:31:08 10° SSW 18:34:36 18° S 18:38:05 10° SE visible
20 Jan 7.1 20:15:30 10° SW 20:18:28 21° SSW 20:18:28 21° SSW visible
21 Jan 6.9 19:17:14 10° SW 19:21:10 22° S 19:23:42 16° SE visible
21 Jan 8.0 21:02:28 10° SW 21:02:39 11° SW 21:02:39 11° SW visible
22 Jan 7.1 18:19:03 10° SW 18:22:52 21° S 18:26:42 10° SE visible
22 Jan 7.0 20:03:56 10° SW 20:07:45 21° S 20:07:53 21° S visible
23 Jan 7.0 19:05:31 10° SW 19:09:25 22° S 19:13:09 11° SE visible
23 Jan 7.9 20:51:21 10° SW 20:52:06 12° SW 20:52:06 12° SW visible
24 Jan 7.2 19:52:34 10° SW 19:55:57 18° S 19:57:24 16° S visible
25 Jan 7.2 18:53:57 10° SW 18:57:37 20° S 19:01:18 10° SE visible
25 Jan 7.9 20:41:12 10° SSW 20:41:42 10° SSW 20:41:42 10° SSW visible
26 Jan 7.6 19:41:35 10° SW 19:44:04 14° SSW 19:46:34 10° SSE visible
27 Jan 7.6 18:42:37 10° SW 18:45:44 16° SSW 18:48:52 10° SSE visible
